Regional Weather Roundup
Issued by NWS Wakefield, VA

Home | Current Version | Previous Version | Graphics & Text | Print | Product List | Glossary On
Versions: 1 2 3 4 5 6 7 8 9 10 11 12 13 14 15 16 17 18 19 20 21 22 23 24 25 26 27 28
000
ASUS41 KAKQ 160515
RWRAKQ

REGIONAL WEATHER ROUNDUP
NATIONAL WEATHER SERVICE WAKEFIELD VA
1200 AM EST SAT DEC 16 2017

Note: "fair" indicates few or no clouds below 12,000 feet with no
significant weather and/or obstructions to visibility. * = Denotes
station may not report precipitation (e.g., rain,snow,etc.),
thunder or fog.

VAZ042-051-052>054-056-160600-
NORTHERN VIRGINIA

CITY           SKY/WX    TMP DP  RH WIND       PRES   REMARKS
WASH NATIONAL  PTCLDY    26  23  88 S6        30.04R
DULLES         MOCLDY    24  22  91 SW7       30.02R
FORT BELVOIR   CLEAR     19  17  90 CALM      30.04R
QUANTICO       CLEAR     25  22  88 VRB3      30.07R
FREDERICKSBRG* CLEAR     21  21 100 CALM      30.06R
STAFFORD*      CLEAR     18  18 100 CALM      30.09R
WARRENTON      CLEAR     18  13  82 SW5       30.04R
CULPEPER*      CLEAR     17  14  86 CALM      30.06R
MANASSAS*      PTCLDY    15  13  91 CALM      30.05R
LEESBURG*      CLOUDY    28  27  93 SW7       30.02R
WINCHESTER     CLOUDY    32  16  51 W12G22    30.00R WCI  23
FRONT ROYAL*   PTCLDY    32  18  55 MISG      30.00R
LURAY*         CLOUDY    32  18  55 W10G17    30.01R WCI  24
$$

VAZ048-049-060>072-079>083-160600-
CENTRAL AND SOUTH CENTRAL VIRGINIA

CITY           SKY/WX    TMP DP  RH WIND       PRES   REMARKS
RICHMOND       CLEAR     33  20  58 W7        30.07R
CHESTERFIELD*  NOT AVBL
PETERSBURG*    CLEAR     21  18  86 W3        30.08R
HANOVER        CLEAR     22  20  92 CALM      30.08R
TAPPAHANNOCK*  CLEAR     22  20  93 CALM      30.07R
QUINTON*       FAIR      22  20  94 CALM      30.07R
CHARLOTTSVILLE CLEAR     31  17  56 S5        30.03R
GORDONSVILLE*  CLEAR     17  16  95 MISG      30.05R
ORANGE*        CLEAR     18  16  93 CALM      30.05R
LOUISA*        CLEAR     20  16  84 SW3       30.09R
BUMPASS*       FAIR      21  18  86 W5        30.05R
FARMVILLE*     CLEAR     27  23  85 CALM      30.06R
CREWE*         FAIR      27  22  82 CALM      30.07R
FORT PICKETT*  NOT AVBL
CHASE CITY*    FAIR      30  20  66 W3        30.09R
CLARKSVILLE*   FAIR      32  21  64 W3        30.10R
SOUTH HILL*    CLEAR     31  22  70 W3        30.14R
LAWRENCEVILLE* FAIR      27  22  82 CALM      30.08R
EMPORIA*       CLEAR     30  23  74 W3        30.10R
$$

VAZ088>098-160600-
SOUTHEAST VIRGINIA

CITY           SKY/WX    TMP DP  RH WIND       PRES   REMARKS
NORFOLK        CLEAR     32  24  72 CALM      30.06R
VIRGINIA BEACH CLEAR     30  21  69 SW3       30.06R
NORFOLK NAVAL  CLEAR     32  23  69 NW5       30.08R
WEST POINT*    CLEAR    N/A N/A N/A CALM      30.09R
SALUDA*        FAIR      25  20  83 CALM      30.05S
NEWPORT NEWS   CLEAR     26  20  77 CALM      30.06S
LANGLEY AFB    CLEAR     26  20  77 CALM      30.06R
FORT EUSTIS    CLEAR     27  22  81 CALM      30.04S
WILLIAMSBURG*  CLEAR     27  21  80 CALM      30.08R
HR EXEC AP*    FAIR      22  19  89 CALM      30.08R
FRANKLIN*      CLEAR     30  23  75 W5        30.09R
US460-WAKEFLD  CLEAR     24  21  88 SW3       30.08R
$$

VAZ020-022-025-037-045-160600-
WEST CENTRAL AND SOUTHWEST VIRGINIA

CITY           SKY/WX    TMP DP  RH WIND       PRES   REMARKS
STAUNTON*      CLEAR     25  14  62 CALM      30.03R
WAYNESBORO*    CLEAR     29  15  55 CALM      30.00S
HOT SPRINGS VA CLOUDY    22  13  69 W25G36    29.88R WCI   5
LYNCHBURG      CLEAR     30  17  58 W7        30.05S
DANVILLE       CLEAR     27  19  72 W3        30.11R
SOUTH BOSTON*  FAIR      28  19  67 W3        30.11R
MARTINSVILLE   CLEAR     26  17  68 CALM      30.12R
ROANOKE        CLOUDY    33  18  53 NW25G37   30.08R WCI  20
BLACKSBURG     CLOUDY    30  19  63 W15G25    30.08R WCI  19
DUBLIN*        CLOUDY    31  19  61 W20G25    30.08R WCI  19
MARION*        CLOUDY    30  16  56 W22G31    30.07R WCI  16
HILLSVILLE*    CLOUDY    27  17  65 NW14G23   30.02S WCI  16
RICHLANDS*     CLOUDY    27  18  69 W7        30.10R
WISE*          CLOUDY    30  21  69 W10       30.12R WCI  21
ABINGDON*      CLOUDY    31  22  69 W9        30.14S
$$

MDZ021>025-VAZ099-100-160600-
SOUTHERN MARYLAND AND THE DELMARVA PENINSULA

CITY           SKY/WX    TMP DP  RH WIND       PRES   REMARKS
PATUXENT RIVER CLEAR     24  23  96 W3        30.04S
BAY BRIDGE APT CLEAR     28  25  86 MISG      30.02S
LEONARDTOWN    CLEAR     23  23 100 CALM      30.05R
DOVER          CLEAR     21  21 100 SW7       30.00S
GEORGETOWN     CLEAR     23  21  92 SW3       30.02S FOG
EASTON         CLEAR     27  26  93 W3        30.05S FOG
CAMBRIDGE      CLEAR     25  25 100 CALM      30.03S FOG
SALISBURY      PTCLDY    27  26  96 SW5       30.03R FOG
OCEAN CITY     CLEAR     27  25  92 W3        30.04R
WALLOPS ISLAND CLEAR     28  28 100 W3        30.04S
ACCOMACK*      CLEAR     31  26  84 W3        30.05R
$$

NCZ012>017-030>032-160600-
NORTH CENTRAL AND EASTERN NORTH CAROLINA

CITY           SKY/WX    TMP DP  RH WIND       PRES   REMARKS
ROANOKE RAPIDS FAIR      30  27  86 W5        30.10R
RALEIGH        CLEAR     31  23  72 W3        30.13R
ELIZABETH CITY CLEAR     31  27  85 W5        30.08R
AHOSKIE*       CLEAR     30  25  82 CALM      30.09S
EDENTON*       CLEAR     38  30  72 NW6       30.09R
CURRITUCK*     CLEAR     32  26  77 CALM      30.08R
KILL DEVIL HLS CLEAR     36  26  66 NW7       30.05R
MANTEO         CLEAR     38  28  68 NW7       30.07R
CAPE HATTERAS  PTCLDY    42  30  62 N10G20    30.07R
TARBORO*       NOT AVBL
GOLDSBORO      CLEAR     36  27  71 NW5       30.10R
WASHINGTON     CLEAR     34  28  77 CALM      30.10R
GREENVILLE     CLEAR     34  28  80 CALM      30.12R
NEW BERN       CLEAR     36  30  79 W3        30.12R
WILMINGTON     CLOUDY    40  30  67 NW6       30.12R
$$

VAZ048-160600-
ELSEWHERE

CITY           SKY/WX    TMP DP  RH WIND       PRES   REMARKS
HARRISBURG PA  MOCLDY    21  19  92 N6        29.97R FOG
BALTIMORE      PTCLDY    19  18  95 CALM      30.01R
ANNAPOLIS      CLEAR     25  25 100 SW6       30.02R
ANDREWS AFB    CLEAR     23  21  91 SW6       30.01S
PHILADELPHIA   PTCLDY    25  20  81 W10       29.98S WCI  15
HENDERSON NC   CLEAR     29  19  64 CALM      30.10R
GREENSBORO     PTCLDY    27  19  72 NW7       30.10S
ROCKY MOUNT    CLEAR     34  26  72 W5        30.11R
$$

VAZ100-160600-
MARINE

STATION/POSITION TIME  TEMP    WIND        PRES    WAVE   SWELL
                       AIR SEA DIR/SP/G            HT/PER HT/PER
                 (UTC) (F)     (DEG/KT/KT) (MB)    (FT/S) (FT/S)
BRANDYWINE LGT   0448   31     300/ 16/ 19 1016.3R
CAPE MAY NJ      0448   31 42  310/ 13/ 18 1015.5R
LEWES DE         0448   26 41  270/  8/ 10 1016.2R
15NM E FENWICK I 0450   34 51  290/ 19/ 25 1016.6R   4/ 5
OCEAN-CITY-INLET 0448   28 44  300/  7/  8 1017.3R
WACHAPREAGUE VA  0448   30 38  260/  1/  2 1017.5R
THOMAS POINT MD  0500   29 42  260/ 11/ 13   N/A
GOOSES REEF MD   0500   32 45  250/ 12/ 16 1017.5    1/ 2
COVE POINT MD    0448   30     270/ 12/ 15 1017.7R
SOLOMONS ISLAND  0448   29 45  290/  3/  5 1017.1R
BISHOPS HEAD MD  0448   33 34  280/ 11/ 12 1017.4R
PINEY POINT MD   0448          290/  8/ 10   N/A
POTOMAC MD       0500   33 45  270/  8/ 12 1016.9    1/ 2
CAMBRIDGE MD     0442   26 39              1017.6R
LEWISETTA VA     0448   29 40  250/  5/  7 1017.5R
RAPPAHANNOCK LGT 0448          290/ 12/ 14 1017.9S
STINGRAY PT      0500   34 45  320/  8/ 10 1017.7    1
YORK RVR RNG VA  0448   33     330/  6/  7 1018.3F
YORKTOWN VA      0448   31 46  240/  3/  4 1017.6S
JAMESTOWN VA     0500      43   40/  4/  4   N/A
DOMINION TERM VA 0448   35     290/  7/  9 1018.2R
KIPTOPEKE VA     0448      44  330/ 14/ 16   N/A
CAPE HENRY VA    0448   35     290/  9/ 12   N/A
WILLOUBY STN VA  0448          320/  6/  7 1017.9R
S CRANEY ISL VA  0448   32     280/  2/  5 1018.0R
CAPE HENRY BUOY  0500      52                N/A     3/ 4
1ST LANDING BUOY 0500   35 47  320/ 10/ 12 1018.1    2/ 3
CAPE CHARLES BUO 0451      50                N/A     2/ 4
64NM E OF VA BCH 0450   42 58  310/ 21/ 25 1016.9R   8/ 6
DUCK PIER NC     0448   36 52  310/ 14/ 19 1017.6R
44100 DUCK FRF   0415      54                N/A     4/ 5
44056 DUCK FRF   0500      54                N/A     3/ 5
OREGON INLET NC  0436   39 48  310/ 11/ 14 1018.0R
HATTERAS NC      0448   43 54  330/ 20/ 24 1018.0R
DIAMOND SHLS NC  0500   47 73  330/ 21/ 29 1018.0
CAPE LOOKOUT NC  0500          340/ 10/ 11 1019.4R
$$




USA.gov is the U.S. government's official web portal to all federal, state and local government web resources and services.